20-05-2022, 00:00:06,    203,    0.0,   11.2,   0.00,   0.00, 1015.8,   70.6, -999.0
20-05-2022, 00:00:16,    203,    0.0,   11.3,   0.00,   0.00, 1015.7,   70.4, -999.0
20-05-2022, 00:00:26,    203,    0.0,   11.3,   0.00,   0.00, 1015.7,   70.3, -999.0
20-05-2022, 00:00:36,    203,    0.0,   11.3,   0.00,   0.00, 1015.7,   70.2, -999.0
20-05-2022, 00:00:46,    203,    0.0,   11.3,   0.00,   0.00, 1015.7,   70.3, -999.0
20-05-2022, 00:00:56,    203,    0.0,   11.3,   0.00,   0.00, 1015.7,   70.2, -999.0
20-05-2022, 00:01:05,    203,    0.0,   11.4,   0.00,   0.00, 1015.7,   70.1, -999.0
20-05-2022, 00:01:16,    203,    0.0,   11.3,   0.00,   0.00, 1015.7,   70.1, -999.0
20-05-2022, 00:01:26,    203,    0.0,   11.3,   0.00,   0.00, 1015.7,   70.1, -999.0
20-05-2022, 00:01:35,    203,    0.0,   11.3,   0.00,   0.00, 1015.7,   70.1, -999.0
20-05-2022, 00:01:45,    203,    0.0,   11.3,   0.00,   0.00, 1015.7,   70.1, -999.0
20-05-2022, 00:01:56,    203,    0.0,   11.4,   0.00,   0.00, 1015.7,   70.1, -999.0
20-05-2022, 00:02:05,    203,    0.0,   11.4,   0.00,   0.00, 1015.7,   70.1, -999.0
20-05-2022, 00:02:15,    203,    0.0,   11.3,   0.00,   0.00, 1015.7,   70.0, -999.0
20-05-2022, 00:02:25,    203,    0.0,   11.3,   0.00,   0.00, 1015.7,   69.8, -999.0
20-05-2022, 00:02:35,    203,    0.0,   11.3,   0.00,   0.00, 1015.7,   69.7, -999.0
20-05-2022, 00:02:45,    203,    0.0,   11.4,   0.00,   0.00, 1015.7,   69.6, -999.0
20-05-2022, 00:02:55,    203,    0.0,   11.3,   0.00,   0.00, 1015.7,   69.7, -999.0
20-05-2022, 00:03:05,    203,    0.0,   11.4,   0.00,   0.00, 1015.7,   69.6, -999.0
20-05-2022, 00:03:15,    203,    0.0,   11.4,   0.00,   0.00, 1015.7,   69.7, -999.0
20-05-2022, 00:03:25,    203,    0.0,   11.4,   0.00,   0.00, 1015.7,   69.6, -999.0
20-05-2022, 00:03:35,    203,    0.0,   11.3,   0.00,   0.00, 1015.7,   69.4, -999.0
20-05-2022, 00:03:45,    203,    0.0,   11.3,   0.00,   0.00, 1015.7,   69.1, -999.0
20-05-2022, 00:03:55,    203,    0.0,   11.3,   0.00,   0.00, 1015.7,   68.9, -999.0
20-05-2022, 00:04:05,    202,    0.0,   11.3,   0.00,   0.00, 1015.7,   68.7, -999.0
20-05-2022, 00:04:14,    203,    0.0,   11.4,   0.00,   0.00, 1015.7,   68.5, -999.0
20-05-2022, 00:04:25,    203,    0.0,   11.4,   0.00,   0.00, 1015.7,   68.2, -999.0
20-05-2022, 00:04:35,    203,    0.0,   11.4,   0.00,   0.00, 1015.8,   68.1, -999.0
20-05-2022, 00:04:44,    203,    0.0,   11.3,   0.00,   0.00, 1015.8,   68.1, -999.0
20-05-2022, 00:04:54,    203,    0.0,   11.4,   0.00,   0.00, 1015.8,   68.0, -999.0
20-05-2022, 00:05:04,    203,    0.0,   11.4,   0.00,   0.00, 1015.7,   67.8, -999.0
20-05-2022, 00:05:14,    202,    0.0,   11.4,   0.00,   0.00, 1015.7,   67.7, -999.0
20-05-2022, 00:05:24,    203,    0.0,   11.4,   0.00,   0.00, 1015.8,   67.4, -999.0
20-05-2022, 00:05:34,    203,    0.0,   11.4,   0.00,   0.00, 1015.8,   67.5, -999.0
20-05-2022, 00:05:44,    203,    0.0,   11.4,   0.00,   0.00, 1015.8,   67.5, -999.0
20-05-2022, 00:05:54,    203,    0.0,   11.4,   0.00,   0.00, 1015.7,   67.4, -999.0
20-05-2022, 00:06:04,    203,    0.0,   11.4,   0.00,   0.00, 1015.8,   67.4, -999.0
20-05-2022, 00:06:14,    203,    0.0,   11.4,   0.00,   0.00, 1015.8,   67.3, -999.0
20-05-2022, 00:06:24,    203,    0.0,   11.4,   0.00,   0.00, 1015.8,   67.2, -999.0
20-05-2022, 00:06:34,    203,    0.0,   11.4,   0.00,   0.00, 1015.8,   67.2, -999.0
20-05-2022, 00:06:44,    203,    0.0,   11.3,   0.00,   0.00, 1015.7,   67.1, -999.0
20-05-2022, 00:06:54,    203,    0.0,   11.4,   0.00,   0.00, 1015.8,   67.0, -999.0
20-05-2022, 00:07:04,    203,    0.0,   11.4,   0.00,   0.00, 1015.8,   67.0, -999.0
20-05-2022, 00:07:14,    203,    0.0,   11.5,   0.00,   0.00, 1015.8,   67.1, -999.0
20-05-2022, 00:07:23,    203,    0.0,   11.4,   0.00,   0.00, 1015.8,   67.1, -999.0
20-05-2022, 00:07:34,    203,    0.0,   11.5,   0.00,   0.00, 1015.8,   66.9, -999.0
20-05-2022, 00:07:44,    203,    0.0,   11.5,   0.00,   0.00, 1015.8,   66.8, -999.0
20-05-2022, 00:07:53,    203,    0.0,   11.5,   0.00,   0.00, 1015.8,   66.5, -999.0
20-05-2022, 00:08:03,    203,    0.0,   11.5,   0.00,   0.00, 1015.8,   66.4, -999.0
20-05-2022, 00:08:13,    203,    0.0,   11.4,   0.00,   0.00, 1015.9,   66.3, -999.0
20-05-2022, 00:08:23,    203,    0.0,   11.5,   0.00,   0.00, 1015.9,   65.9, -999.0
20-05-2022, 00:08:33,    203,    0.0,   11.5,   0.00,   0.00, 1015.9,   66.0, -999.0
20-05-2022, 00:08:43,    203,    0.0,   11.4,   0.00,   0.00, 1015.8,   65.9, -999.0
20-05-2022, 00:08:53,    203,    0.0,   11.5,   0.00,   0.00, 1015.9,   65.9, -999.0
20-05-2022, 00:09:03,    203,    0.0,   11.4,   0.00,   0.00, 1015.9,   66.0, -999.0
20-05-2022, 00:09:13,    203,    0.0,   11.5,   0.00,   0.00, 1015.9,   66.1, -999.0
20-05-2022, 00:09:23,    203,    0.0,   11.5,   0.00,   0.00, 1015.9,   66.0, -999.0
20-05-2022, 00:09:33,    203,    0.0,   11.5,   0.00,   0.00, 1015.9,   66.1, -999.0
20-05-2022, 00:09:43,    203,    0.0,   11.5,   0.00,   0.00, 1015.9,   66.0, -999.0
20-05-2022, 00:09:53,    203,    0.0,   11.5,   0.00,   0.00, 1015.9,   66.2, -999.0
20-05-2022, 00:10:03,    203,    0.0,   11.5,   0.00,   0.00, 1015.9,   65.8, -999.0
20-05-2022, 00:10:13,    203,    0.0,   11.6,   0.00,   0.00, 1015.9,   65.5, -999.0
20-05-2022, 00:10:23,    203,    0.0,   11.5,   0.00,   0.00, 1015.9,   65.6, -999.0
20-05-2022, 00:10:32,    203,    0.0,   11.5,   0.00,   0.00, 1015.9,   65.4, -999.0
20-05-2022, 00:10:43,    203,    0.0,   11.5,   0.00,   0.00, 1015.9,   65.2, -999.0
20-05-2022, 00:10:53,    203,    0.0,   11.5,   0.00,   0.00, 1015.9,   65.1, -999.0
20-05-2022, 00:11:02,    203,    0.0,   11.6,   0.00,   0.00, 1015.9,   65.1, -999.0
20-05-2022, 00:11:13,    202,    0.0,   11.5,   0.00,   0.00, 1015.9,   65.2, -999.0
20-05-2022, 00:11:22,    203,    0.0,   11.5,   0.00,   0.00, 1015.9,   65.2, -999.0
20-05-2022, 00:11:32,    203,    0.0,   11.5,   0.00,   0.00, 1015.9,   65.2, -999.0
20-05-2022, 00:11:42,    203,    0.0,   11.5,   0.00,   0.00, 1015.9,   65.2, -999.0
20-05-2022, 00:11:52,    203,    0.0,   11.6,   0.00,   0.00, 1015.9,   65.3, -999.0
20-05-2022, 00:12:02,    203,    0.0,   11.6,   0.00,   0.00, 1015.9,   65.3, -999.0
20-05-2022, 00:12:12,    203,    0.0,   11.6,   0.00,   0.00, 1015.9,   65.4, -999.0
20-05-2022, 00:12:22,    202,    0.0,   11.5,   0.00,   0.00, 1015.9,   65.5, -999.0
20-05-2022, 00:12:32,    203,    0.0,   11.5,   0.00,   0.00, 1015.9,   65.6, -999.0
20-05-2022, 00:12:42,    203,    0.0,   11.5,   0.00,   0.00, 1015.9,   65.8, -999.0
20-05-2022, 00:12:52,    201,    0.0,   11.6,   0.00,   0.00, 1016.0,   65.8, -999.0
20-05-2022, 00:13:02,    201,    0.0,   11.6,   0.00,   0.00, 1016.0,   65.6, -999.0
20-05-2022, 00:13:12,    202,    0.0,   11.5,   0.00,   0.00, 1015.9,   65.7, -999.0
20-05-2022, 00:13:22,    202,    0.0,   11.5,   0.00,   0.00, 1015.9,   65.9, -999.0
20-05-2022, 00:13:32,    202,    0.0,   11.6,   0.00,   0.00, 1015.9,   65.8, -999.0
20-05-2022, 00:13:42,    202,    0.0,   11.6,   0.00,   0.00, 1015.9,   65.9, -999.0
20-05-2022, 00:13:52,    202,    0.0,   11.6,   0.00,   0.00, 1016.0,   65.9, -999.0
20-05-2022, 00:14:01,    206,    0.0,   11.6,   0.00,   0.00, 1016.0,   65.9, -999.0
20-05-2022, 00:14:11,    205,    0.0,   11.6,   0.00,   0.00, 1016.0,   65.9, -999.0
20-05-2022, 00:14:22,    205,    0.0,   11.5,   0.00,   0.00, 1016.0,   65.7, -999.0
20-05-2022, 00:14:31,    207,    0.0,   11.5,   0.00,   0.00, 1015.9,   65.4, -999.0
20-05-2022, 00:14:41,    207,    0.0,   11.5,   0.00,   0.00, 1015.9,   65.3, -999.0
20-05-2022, 00:14:51,    209,    0.0,   11.5,   0.00,   0.00, 1015.9,   65.3, -999.0
20-05-2022, 00:15:01,    209,    0.0,   11.5,   0.00,   0.00, 1015.9,   65.4, -999.0
20-05-2022, 00:15:11,    210,    0.0,   11.4,   0.00,   0.00, 1015.9,   65.4, -999.0
20-05-2022, 00:15:21,    210,    0.0,   11.6,   0.00,   0.00, 1015.9,   65.6, -999.0
20-05-2022, 00:15:31,    210,    0.0,   11.6,   0.00,   0.00, 1016.0,   65.7, -999.0
20-05-2022, 00:15:41,    210,    0.0,   11.5,   0.00,   0.00, 1016.0,   65.7, -999.0
20-05-2022, 00:15:51,    210,    0.0,   11.4,   0.00,   0.00, 1016.0,   65.7, -999.0
20-05-2022, 00:16:01,    210,    0.0,   11.6,   0.00,   0.00, 1016.0,   65.6, -999.0
20-05-2022, 00:16:11,    210,    0.0,   11.5,   0.00,   0.00, 1015.9,   65.5, -999.0
20-05-2022, 00:16:21,    210,    0.0,   11.5,   0.00,   0.00, 1015.9,   65.4, -999.0
20-05-2022, 00:16:31,    210,    0.0,   11.6,   0.00,   0.00, 1015.9,   65.5, -999.0
20-05-2022, 00:16:41,    210,    0.0,   11.5,   0.00,   0.00, 1015.9,   65.7, -999.0
20-05-2022, 00:16:51,    210,    0.0,   11.5,   0.00,   0.00, 1016.0,   65.7, -999.0
20-05-2022, 00:17:01,    210,    0.0,   11.6,   0.00,   0.00, 1015.9,   65.7, -999.0
20-05-2022, 00:17:10,    210,    0.0,   11.6,   0.00,   0.00, 1015.9,   65.8, -999.0
20-05-2022, 00:17:20,    210,    0.0,   11.6,   0.00,   0.00, 1015.9,   65.8, -999.0
20-05-2022, 00:17:31,    210,    0.0,   11.6,   0.00,   0.00, 1015.9,   65.6, -999.0
20-05-2022, 00:17:40,    210,    0.0,   11.6,   0.00,   0.00, 1015.9,   65.6, -999.0
20-05-2022, 00:17:50,    210,    0.0,   11.5,   0.00,   0.00, 1015.9,   65.5, -999.0
20-05-2022, 00:18:00,    210,    0.0,   11.5,   0.00,   0.00, 1015.9,   65.5, -999.0
20-05-2022, 00:18:10,    210,    0.0,   11.5,   0.00,   0.00, 1015.9,   65.6, -999.0
20-05-2022, 00:18:20,    210,    0.0,   11.5,   0.00,   0.00, 1015.9,   65.7, -999.0
20-05-2022, 00:18:30,    210,    0.0,   11.5,   0.00,   0.00, 1015.9,   65.8, -999.0
20-05-2022, 00:18:40,    210,    0.0,   11.5,   0.00,   0.00, 1015.9,   66.0, -999.0
20-05-2022, 00:18:50,    210,    0.0,   11.5,   0.00,   0.00, 1015.9,   66.0, -999.0
20-05-2022, 00:19:00,    208,    0.0,   11.5,   0.00,   0.00, 1015.9,   66.1, -999.0
20-05-2022, 00:19:10,    208,    0.0,   11.5,   0.00,   0.00, 1015.9,   66.2, -999.0
20-05-2022, 00:19:20,    208,    0.0,   11.4,   0.00,   0.00, 1015.9,   66.0, -999.0
20-05-2022, 00:19:30,    207,    0.0,   11.5,   0.00,   0.00, 1015.9,   66.0, -999.0
20-05-2022, 00:19:40,    208,    0.0,   11.4,   0.00,   0.00, 1015.9,   66.1, -999.0
20-05-2022, 00:19:49,    208,    0.0,   11.4,   0.00,   0.00, 1015.9,   66.3, -999.0
20-05-2022, 00:20:00,    208,    0.0,   11.5,   0.00,   0.00, 1015.9,   66.5, -999.0
20-05-2022, 00:20:10,    208,    0.0,   11.4,   0.00,   0.00, 1015.9,   66.6, -999.0
20-05-2022, 00:20:19,    208,    0.0,   11.4,   0.00,   0.00, 1015.9,   66.7, -999.0
20-05-2022, 00:20:29,    208,    0.0,   11.4,   0.00,   0.00, 1015.9,   66.7, -999.0
20-05-2022, 00:20:40,    208,    0.0,   11.4,   0.00,   0.00, 1015.9,   66.8, -999.0
20-05-2022, 00:20:49,    209,    0.0,   11.4,   0.00,   0.00, 1015.9,   67.0, -999.0
20-05-2022, 00:20:59,    208,    0.0,   11.4,   0.00,   0.00, 1015.9,   67.1, -999.0
20-05-2022, 00:21:09,    208,    0.0,   11.4,   0.00,   0.00, 1015.9,   67.1, -999.0
20-05-2022, 00:21:19,    208,    0.0,   11.4,   0.00,   0.00, 1015.9,   67.2, -999.0
20-05-2022, 00:21:29,    208,    0.0,   11.4,   0.00,   0.00, 1015.9,   67.2, -999.0
20-05-2022, 00:21:39,    208,    0.0,   11.4,   0.00,   0.00, 1015.9,   67.3, -999.0
20-05-2022, 00:21:49,    208,    0.0,   11.4,   0.00,   0.00, 1015.9,   67.3, -999.0
20-05-2022, 00:21:59,    208,    0.0,   11.4,   0.00,   0.00, 1016.0,   67.4, -999.0
20-05-2022, 00:22:09,    209,    0.0,   11.4,   0.00,   0.00, 1015.9,   67.4, -999.0
20-05-2022, 00:22:19,    208,    0.0,   11.4,   0.00,   0.00, 1016.0,   67.5, -999.0
20-05-2022, 00:22:29,    208,    0.0,   11.5,   0.00,   0.00, 1016.0,   67.7, -999.0
20-05-2022, 00:22:39,    206,    0.0,   11.4,   0.00,   0.00, 1015.9,   67.7, -999.0
20-05-2022, 00:22:49,    206,    0.0,   11.4,   0.00,   0.00, 1016.0,   67.9, -999.0
20-05-2022, 00:22:58,    206,    0.0,   11.4,   0.00,   0.00, 1016.0,   67.9, -999.0
20-05-2022, 00:23:09,    206,    0.0,   11.4,   0.00,   0.00, 1016.0,   68.1, -999.0
20-05-2022, 00:23:19,    205,    0.0,   11.4,   0.00,   0.00, 1016.0,   68.2, -999.0
20-05-2022, 00:23:28,    206,    0.0,   11.4,   0.00,   0.00, 1016.0,   68.2, -999.0
20-05-2022, 00:23:38,    206,    0.0,   11.4,   0.00,   0.00, 1016.0,   68.4, -999.0
20-05-2022, 00:23:49,    206,    0.0,   11.4,   0.00,   0.00, 1016.0,   68.3, -999.0
20-05-2022, 00:23:58,    205,    0.0,   11.3,   0.00,   0.00, 1016.1,   68.5, -999.0
20-05-2022, 00:24:08,    205,    0.0,   11.4,   0.00,   0.00, 1016.0,   68.5, -999.0
20-05-2022, 00:24:18,    206,    0.0,   11.3,   0.00,   0.00, 1016.0,   68.6, -999.0
20-05-2022, 00:24:28,    206,    0.0,   11.4,   0.00,   0.00, 1016.0,   68.7, -999.0
20-05-2022, 00:24:38,    206,    0.0,   11.5,   0.00,   0.00, 1016.1,   68.7, -999.0
20-05-2022, 00:24:48,    206,    0.0,   11.4,   0.00,   0.00, 1016.1,   68.7, -999.0
20-05-2022, 00:24:58,    205,    0.0,   11.3,   0.00,   0.00, 1016.1,   69.0, -999.0
20-05-2022, 00:25:08,    205,    0.0,   11.4,   0.00,   0.00, 1016.1,   69.1, -999.0
20-05-2022, 00:25:18,    205,    0.0,   11.4,   0.00,   0.00, 1016.1,   69.1, -999.0
20-05-2022, 00:25:28,    206,    0.0,   11.4,   0.00,   0.00, 1016.0,   69.2, -999.0
20-05-2022, 00:25:38,    206,    0.0,   11.4,   0.00,   0.00, 1016.0,   69.2, -999.0
20-05-2022, 00:25:48,    206,    0.0,   11.4,   0.00,   0.00, 1016.1,   69.4, -999.0
20-05-2022, 00:25:58,    206,    0.0,   11.4,   0.00,   0.00, 1016.1,   69.5, -999.0
20-05-2022, 00:26:07,    205,    0.0,   11.4,   0.00,   0.00, 1016.1,   69.5, -999.0
20-05-2022, 00:26:18,    206,    0.0,   11.4,   0.00,   0.00, 1016.1,   69.5, -999.0
20-05-2022, 00:26:28,    205,    0.0,   11.4,   0.00,   0.00, 1016.1,   69.6, -999.0
20-05-2022, 00:26:37,    206,    0.0,   11.3,   0.00,   0.00, 1016.1,   69.6, -999.0
20-05-2022, 00:26:48,    206,    0.0,   11.3,   0.00,   0.00, 1016.1,   69.6, -999.0
20-05-2022, 00:26:57,    206,    0.0,   11.4,   0.00,   0.00, 1016.0,   69.7, -999.0
20-05-2022, 00:27:07,    206,    0.0,   11.3,   0.00,   0.00, 1016.0,   69.7, -999.0
20-05-2022, 00:27:17,    206,    0.0,   11.3,   0.00,   0.00, 1016.0,   69.7, -999.0
20-05-2022, 00:27:27,    205,    0.0,   11.2,   0.00,   0.00, 1016.1,   69.8, -999.0
20-05-2022, 00:27:37,    206,    0.0,   11.3,   0.00,   0.00, 1016.1,   69.7, -999.0
20-05-2022, 00:27:47,    206,    0.0,   11.3,   0.00,   0.00, 1016.1,   69.7, -999.0
20-05-2022, 00:27:57,    206,    0.0,   11.2,   0.00,   0.00, 1016.0,   69.9, -999.0
20-05-2022, 00:28:07,    206,    0.0,   11.3,   0.00,   0.00, 1016.1,   69.9, -999.0
20-05-2022, 00:28:17,    206,    0.0,   11.3,   0.00,   0.00, 1016.1,   69.8, -999.0
20-05-2022, 00:28:27,    205,    0.0,   11.3,   0.00,   0.00, 1016.1,   69.9, -999.0
20-05-2022, 00:28:37,    205,    0.0,   11.3,   0.00,   0.00, 1016.1,   70.0, -999.0
20-05-2022, 00:28:47,    205,    0.0,   11.3,   0.00,   0.00, 1016.1,   70.1, -999.0
20-05-2022, 00:28:57,    205,    0.0,   11.3,   0.00,   0.00, 1016.0,   70.2, -999.0
20-05-2022, 00:29:07,    205,    0.0,   11.3,   0.00,   0.00, 1016.1,   70.0, -999.0
20-05-2022, 00:29:16,    205,    0.0,   11.3,   0.00,   0.00, 1016.1,   70.0, -999.0
20-05-2022, 00:29:27,    205,    0.0,   11.3,   0.00,   0.00, 1016.1,   70.0, -999.0
20-05-2022, 00:29:37,    205,    0.0,   11.3,   0.00,   0.00, 1016.1,   70.0, -999.0
20-05-2022, 00:29:46,    205,    0.0,   11.2,   0.00,   0.00, 1016.1,   70.0, -999.0
20-05-2022, 00:29:57,    205,    0.0,   11.2,   0.00,   0.00, 1016.1,   69.9, -999.0
20-05-2022, 00:30:06,    205,    0.0,   11.3,   0.00,   0.00, 1016.1,   69.9, -999.0
20-05-2022, 00:30:16,    205,    0.0,   11.2,   0.00,   0.00, 1016.1,   69.8, -999.0
20-05-2022, 00:30:26,    203,    0.0,   11.2,   0.00,   0.00, 1016.1,   70.0, -999.0
20-05-2022, 00:30:36,    203,    0.0,   11.2,   0.00,   0.00, 1016.1,   69.8, -999.0
20-05-2022, 00:30:46,    203,    0.0,   11.2,   0.00,   0.00, 1016.1,   69.7, -999.0
20-05-2022, 00:30:56,    203,    0.0,   11.2,   0.00,   0.00, 1016.1,   69.9, -999.0
20-05-2022, 00:31:06,    203,    0.0,   11.3,   0.00,   0.00, 1016.1,   70.1, -999.0
20-05-2022, 00:31:16,    204,    0.0,   11.2,   0.00,   0.00, 1016.1,   70.1, -999.0
20-05-2022, 00:31:26,    204,    0.0,   11.1,   0.00,   0.00, 1016.1,   70.0, -999.0
20-05-2022, 00:31:36,    204,    0.0,   11.1,   0.00,   0.00, 1016.1,   70.3, -999.0
20-05-2022, 00:31:46,    203,    0.0,   11.3,   0.00,   0.00, 1016.1,   70.3, -999.0
20-05-2022, 00:31:56,    204,    0.0,   11.3,   0.00,   0.00, 1016.1,   70.3, -999.0
20-05-2022, 00:32:06,    203,    0.0,   11.3,   0.00,   0.00, 1016.1,   70.5, -999.0
20-05-2022, 00:32:16,    203,    0.0,   11.3,   0.00,   0.00, 1016.0,   70.8, -999.0
20-05-2022, 00:32:26,    204,    0.0,   11.3,   0.00,   0.00, 1016.0,   70.8, -999.0
20-05-2022, 00:32:36,    203,    0.0,   11.3,   0.00,   0.00, 1016.0,   71.0, -999.0
20-05-2022, 00:32:46,    203,    0.0,   11.4,   0.00,   0.00, 1016.1,   71.2, -999.0
20-05-2022, 00:32:55,    193,    0.0,   11.4,   0.00,   0.00, 1016.1,   71.3, -999.0
20-05-2022, 00:33:06,    203,    0.0,   11.4,   0.00,   0.00, 1016.0,   71.2, -999.0
20-05-2022, 00:33:15,    203,    0.0,   11.4,   0.00,   0.00, 1016.0,   71.3, -999.0
20-05-2022, 00:33:25,    203,    0.0,   11.3,   0.00,   0.00, 1016.0,   71.4, -999.0
20-05-2022, 00:33:35,    203,    0.0,   11.3,   0.00,   0.00, 1016.0,   71.4, -999.0
20-05-2022, 00:33:45,    203,    0.0,   11.3,   0.00,   0.00, 1016.0,   71.5, -999.0
20-05-2022, 00:33:55,    203,    0.0,   11.3,   0.00,   0.00, 1016.0,   71.6, -999.0
20-05-2022, 00:34:05,    203,    0.0,   11.3,   0.00,   0.00, 1016.0,   71.8, -999.0
20-05-2022, 00:34:15,    203,    0.0,   11.2,   0.00,   0.00, 1016.0,   71.7, -999.0
20-05-2022, 00:34:25,    203,    0.0,   11.2,   0.00,   0.00, 1016.0,   71.8, -999.0
20-05-2022, 00:34:35,    203,    0.0,   11.2,   0.00,   0.00, 1016.0,   71.8, -999.0
20-05-2022, 00:34:45,    203,    0.0,   11.2,   0.00,   0.00, 1016.0,   71.8, -999.0
20-05-2022, 00:34:55,    203,    0.0,   11.2,   0.00,   0.00, 1016.0,   72.0, -999.0
20-05-2022, 00:35:05,    203,    0.0,   11.2,   0.00,   0.00, 1016.0,   72.0, -999.0
20-05-2022, 00:35:15,    203,    0.0,   11.2,   0.00,   0.00, 1016.0,   72.1, -999.0
20-05-2022, 00:35:25,    203,    0.0,   11.2,   0.00,   0.00, 1016.0,   72.1, -999.0
20-05-2022, 00:35:35,    204,    0.0,   11.1,   0.00,   0.00, 1016.0,   72.2, -999.0
20-05-2022, 00:35:45,    203,    0.0,   11.0,   0.00,   0.00, 1016.1,   72.3, -999.0
20-05-2022, 00:35:55,    203,    0.0,   11.2,   0.00,   0.00, 1016.0,   72.5, -999.0
20-05-2022, 00:36:04,    203,    0.0,   11.2,   0.00,   0.00, 1016.0,   72.5, -999.0
20-05-2022, 00:36:15,    204,    0.0,   11.2,   0.00,   0.00, 1016.0,   72.4, -999.0
20-05-2022, 00:36:24,    203,    0.0,   11.0,   0.00,   0.00, 1016.1,   72.6, -999.0
20-05-2022, 00:36:34,    203,    0.0,   11.1,   0.00,   0.00, 1016.1,   72.5, -999.0
20-05-2022, 00:36:44,    204,    0.0,   11.1,   0.00,   0.00, 1016.1,   72.5, -999.0
20-05-2022, 00:36:54,    203,    0.0,   11.2,   0.00,   0.00, 1016.1,   72.6, -999.0
20-05-2022, 00:37:04,    203,    0.0,   11.2,   0.00,   0.00, 1016.1,   72.6, -999.0
20-05-2022, 00:37:14,    203,    0.0,   11.1,   0.00,   0.00, 1016.1,   72.6, -999.0
20-05-2022, 00:37:24,    203,    0.0,   11.1,   0.00,   0.00, 1016.1,   72.5, -999.0
20-05-2022, 00:37:34,    203,    0.0,   11.1,   0.00,   0.00, 1016.1,   72.5, -999.0
20-05-2022, 00:37:44,    203,    0.0,   11.1,   0.00,   0.00, 1016.1,   72.6, -999.0
20-05-2022, 00:37:54,    203,    0.0,   11.0,   0.00,   0.00, 1016.1,   72.4, -999.0
20-05-2022, 00:38:04,    203,    0.0,   11.1,   0.00,   0.00, 1016.1,   72.5, -999.0
20-05-2022, 00:38:14,    203,    0.0,   11.2,   0.00,   0.00, 1016.1,   72.4, -999.0
20-05-2022, 00:38:24,    203,    0.0,   11.1,   0.00,   0.00, 1016.0,   72.5, -999.0
20-05-2022, 00:38:34,    203,    0.0,   11.2,   0.00,   0.00, 1016.1,   72.5, -999.0
20-05-2022, 00:38:44,    203,    0.0,   11.2,   0.00,   0.00, 1016.1,   72.4, -999.0
20-05-2022, 00:38:54,    203,    0.0,   11.2,   0.00,   0.00, 1016.1,   72.3, -999.0
20-05-2022, 00:39:03,    212,    0.0,   11.1,   0.00,   0.00, 1016.1,   72.1, -999.0
20-05-2022, 00:39:13,    213,    0.0,   11.0,   0.00,   0.00, 1016.1,   71.9, -999.0
20-05-2022, 00:39:24,    212,    0.0,   11.0,   0.00,   0.00, 1016.0,   71.9, -999.0
20-05-2022, 00:39:33,    212,    0.0,   11.1,   0.00,   0.00, 1016.0,   71.9, -999.0
20-05-2022, 00:39:43,    212,    0.0,   11.2,   0.00,   0.00, 1016.1,   71.8, -999.0
20-05-2022, 00:39:54,    212,    0.0,   11.2,   0.00,   0.00, 1016.0,   71.9, -999.0
20-05-2022, 00:40:03,    212,    0.0,   11.2,   0.00,   0.00, 1016.1,   71.9, -999.0
20-05-2022, 00:40:13,    212,    0.0,   11.2,   0.00,   0.00, 1016.0,   71.9, -999.0
20-05-2022, 00:40:23,    212,    0.0,   11.2,   0.00,   0.00, 1016.1,   71.8, -999.0
20-05-2022, 00:40:33,    212,    0.0,   11.1,   0.00,   0.00, 1016.1,   71.4, -999.0
20-05-2022, 00:40:43,    209,    0.0,   11.1,   0.00,   0.00, 1016.0,   71.2, -999.0
20-05-2022, 00:40:53,    209,    0.0,   11.1,   0.00,   0.00, 1016.1,   71.1, -999.0
20-05-2022, 00:41:03,    209,    0.0,   11.1,   0.00,   0.00, 1016.0,   71.0, -999.0
20-05-2022, 00:41:13,    209,    0.0,   11.0,   0.00,   0.00, 1016.1,   71.0, -999.0
20-05-2022, 00:41:23,    209,    0.0,   11.1,   0.00,   0.00, 1016.0,   70.9, -999.0
20-05-2022, 00:41:33,    209,    0.0,   11.1,   0.00,   0.00, 1016.0,   70.9, -999.0
20-05-2022, 00:41:43,    209,    0.0,   11.2,   0.00,   0.00, 1016.0,   70.7, -999.0
20-05-2022, 00:41:53,    208,    0.0,   11.1,   0.00,   0.00, 1016.1,   70.7, -999.0
20-05-2022, 00:42:03,    203,    0.0,   11.1,   0.00,   0.00, 1016.1,   70.7, -999.0
20-05-2022, 00:42:12,    203,    0.0,   11.2,   0.00,   0.00, 1016.1,   70.6, -999.0
20-05-2022, 00:42:23,    203,    0.0,   11.1,   0.00,   0.00, 1016.1,   70.6, -999.0
20-05-2022, 00:42:33,    203,    0.0,   11.1,   0.00,   0.00, 1016.1,   70.6, -999.0
20-05-2022, 00:42:42,    203,    0.0,   11.1,   0.00,   0.00, 1016.1,   70.6, -999.0
20-05-2022, 00:42:52,    203,    0.0,   11.2,   0.00,   0.00, 1016.1,   70.5, -999.0
20-05-2022, 00:43:03,    203,    0.0,   11.2,   0.00,   0.00, 1016.1,   70.6, -999.0
20-05-2022, 00:43:12,    210,    0.0,   11.2,   0.00,   0.00, 1016.1,   70.6, -999.0
20-05-2022, 00:43:22,    203,    0.0,   11.2,   0.00,   0.00, 1016.1,   70.5, -999.0
20-05-2022, 00:43:32,    203,    0.0,   11.2,   0.00,   0.00, 1016.1,   70.4, -999.0
20-05-2022, 00:43:42,    203,    0.0,   11.2,   0.00,   0.00, 1016.1,   70.4, -999.0
20-05-2022, 00:43:52,    203,    0.0,   11.2,   0.00,   0.00, 1016.1,   70.3, -999.0
20-05-2022, 00:44:02,    203,    0.0,   11.1,   0.00,   0.00, 1016.1,   70.3, -999.0
20-05-2022, 00:44:12,    203,    0.0,   11.1,   0.00,   0.00, 1016.1,   70.4, -999.0
20-05-2022, 00:44:22,    203,    0.0,   11.2,   0.00,   0.00, 1016.1,   70.4, -999.0
20-05-2022, 00:44:32,    203,    0.0,   11.1,   0.00,   0.00, 1016.1,   70.3, -999.0
20-05-2022, 00:44:42,    203,    0.0,   11.2,   0.00,   0.00, 1016.1,   70.4, -999.0
20-05-2022, 00:44:52,    203,    0.0,   11.2,   0.00,   0.00, 1016.1,   70.4, -999.0
20-05-2022, 00:45:02,    203,    0.0,   11.2,   0.00,   0.00, 1016.1,   70.4, -999.0
20-05-2022, 00:45:12,    203,    0.0,   11.3,   0.00,   0.00, 1016.1,   70.4, -999.0
20-05-2022, 00:45:21,    203,    0.0,   11.2,   0.00,   0.00, 1016.1,   70.3, -999.0
20-05-2022, 00:45:32,    203,    0.0,   11.2,   0.00,   0.00, 1016.1,   70.2, -999.0
20-05-2022, 00:45:42,    203,    0.0,   11.2,   0.00,   0.00, 1016.1,   70.2, -999.0
20-05-2022, 00:45:51,    203,    0.0,   11.2,   0.00,   0.00, 1016.1,   70.1, -999.0
20-05-2022, 00:46:01,    202,    0.0,   11.2,   0.00,   0.00, 1016.1,   70.1, -999.0
20-05-2022, 00:46:11,    203,    0.0,   11.2,   0.00,   0.00, 1016.1,   70.0, -999.0
20-05-2022, 00:46:21,    203,    0.0,   11.2,   0.00,   0.00, 1016.1,   69.9, -999.0
20-05-2022, 00:46:31,    203,    0.0,   11.2,   0.00,   0.00, 1016.1,   69.9, -999.0
20-05-2022, 00:46:41,    202,    0.0,   11.1,   0.00,   0.00, 1016.1,   69.7, -999.0